DW5963 Weather Reports


time (UTC)temp
C
wind
direction
speed
KPH
gust
KPH
rain 1hr
cm
rain 24hr
cm
rain mn
cm
humidity
%
barometer
mb
20260831222546 26 269 29.0 0.0 0.00 0.00 0.00 33 1009.4
20260831222044 26 277 30.6 0.0 0.00 0.00 0.00 33 1009.4
20260831221559 26 268 32.2 0.0 0.00 0.00 0.00 33 1009.4
20260831221044 26 284 33.8 0.0 0.00 0.00 0.00 34 1009.2
20260831220544 26 304 32.2 0.0 0.00 0.00 0.00 34 1009.3
20260831220044 26 311 32.2 0.0 0.00 0.00 0.00 33 1008.7
20260831215544 26 288 33.8 0.0 0.00 0.00 0.00 33 1009.3
20260831215044 26 269 29.0 0.0 0.00 0.00 0.00 33 1009.0
20260831214544 26 235 30.6 0.0 0.00 0.00 0.00 34 1009.2
20260831214043 27 279 32.2 0.0 0.00 0.00 0.00 33 1009.2
20260831213045 26 300 35.4 0.0 0.00 0.00 0.00 34 1009.1
20260831212543 26 280 33.8 0.0 0.00 0.00 0.00 34 1009.1
20260831212045 26 291 30.6 0.0 0.00 0.00 0.00 33 1009.2
20260831211543 26 292 30.6 0.0 0.00 0.00 0.00 35 1009.2
20260831211043 26 360 32.2 0.0 0.00 0.00 0.00 34 1009.2
20260831210541 26 265 32.2 0.0 0.00 0.00 0.00 35 1009.1
20260831210041 26 275 32.2 0.0 0.00 0.00 0.00 34 1009.2
20260831205544 26 273 35.4 0.0 0.00 0.00 0.00 35 1009.0
20260831205041 26 294 33.8 0.0 0.00 0.00 0.00 34 1009.0
20260831204541 26 306 30.6 0.0 0.00 0.00 0.00 35 1009.0
20260831204042 26 269 32.2 0.0 0.00 0.00 0.00 36 1009.1
20260831203055 26 262 32.2 0.0 0.00 0.00 0.00 35 1009.1
20260831202538 26 267 32.2 0.0 0.00 0.00 0.00 37 1009.0
20260831202040 26 285 32.2 0.0 0.00 0.00 0.00 35 1009.0
20260831201537 26 360 32.2 0.0 0.00 0.00 0.00 37 1009.0
20260831201038 26 269 33.8 0.0 0.00 0.00 0.00 36 1008.8
20260831200537 26 282 37.0 0.0 0.00 0.00 0.00 37 1009.0
20260831200112 26 273 35.4 0.0 0.00 0.00 0.00 37 1008.9
20260831195539 26 279 30.6 0.0 0.00 0.00 0.00 37 1008.8
20260831195035 26 277 30.6 0.0 0.00 0.00 0.00 39 1008.7
20260831194537 26 360 30.6 0.0 0.00 0.00 0.00 38 1008.9
20260831194035 26 270 29.0 0.0 0.00 0.00 0.00 37 1008.9
20260831193035 25 360 32.2 0.0 0.00 0.00 0.00 38 1008.7
20260831192538 25 360 32.2 0.0 0.00 0.00 0.00 39 1008.7
20260831192035 25 273 33.8 0.0 0.00 0.00 0.00 39 1008.7
20260831191534 25 360 35.4 0.0 0.00 0.00 0.00 38 1008.7
20260831191033 25 260 38.6 0.0 0.00 0.00 0.00 40 1008.7
20260831190535 25 279 37.0 0.0 0.00 0.00 0.00 39 1008.6
20260831190038 25 278 35.4 0.0 0.00 0.00 0.00 38 1008.6
20260831185532 25 282 41.8 0.0 0.00 0.00 0.00 39 1008.6
20260831185032 25 279 40.2 0.0 0.00 0.00 0.00 38 1008.7
20260831184531 25 269 37.0 0.0 0.00 0.00 0.00 37 1008.5
20260831184030 25 280 35.4 0.0 0.00 0.00 0.00 39 1008.4
20260831183029 25 360 35.4 0.0 0.00 0.00 0.00 40 1008.4
20260831182530 25 273 33.8 0.0 0.00 0.00 0.00 40 1008.4
20260831182029 25 265 37.0 0.0 0.00 0.00 0.00 40 1008.5
20260831181531 24 313 37.0 0.0 0.00 0.00 0.00 40 1008.3
20260831181027 24 282 32.2 0.0 0.00 0.00 0.00 41 1008.3
20260831180526 24 265 32.2 0.0 0.00 0.00 0.00 41 1008.2
20260831180029 24 276 32.2 0.0 0.00 0.00 0.00 42 1008.4
20260831175527 24 275 30.6 0.0 0.00 0.00 0.00 42 1008.5
20260831175025 24 267 33.8 0.0 0.00 0.00 0.00 43 1008.4
20260831174527 23 277 37.0 0.0 0.00 0.00 0.00 43 1008.4
20260831174026 23 281 33.8 0.0 0.00 0.00 0.00 43 1008.4
20260831173024 23 360 32.2 0.0 0.00 0.00 0.00 43 1008.3
20260831172524 23 279 35.4 0.0 0.00 0.00 0.00 44 1008.3
20260831172022 23 265 32.2 0.0 0.00 0.00 0.00 44 1008.4
20260831171522 23 270 30.6 0.0 0.00 0.00 0.00 45 1008.3
20260831171022 23 360 32.2 0.0 0.00 0.00 0.00 45 1008.3
20260831170521 23 360 33.8 0.0 0.00 0.00 0.00 46 1008.4
20260831170022 23 360 33.8 0.0 0.00 0.00 0.00 46 1008.3
20260831165519 22 360 30.6 0.0 0.00 0.00 0.00 46 1008.2
20260831165019 22 360 27.4 0.0 0.00 0.00 0.00 46 1008.0
20260831164519 22 360 29.0 0.0 0.00 0.00 0.00 46 1008.1
20260831164018 22 360 30.6 0.0 0.00 0.00 0.00 45 1008.1
20260831163019 22 360 27.4 0.0 0.00 0.00 0.00 45 1008.2
20260831162520 22 265 27.4 0.0 0.00 0.00 0.00 44 1008.1
20260831162015 21 360 30.6 0.0 0.00 0.00 0.00 45 1008.1
20260831161515 21 360 30.6 0.0 0.00 0.00 0.00 44 1008.2
20260831161014 21 267 30.6 0.0 0.00 0.00 0.00 45 1008.0
20260831160615 21 360 29.0 0.0 0.00 0.00 0.00 45 1008.1
20260831160013 21 360 29.0 0.0 0.00 0.00 0.00 45 1007.9
20260831155513 21 360 30.6 0.0 0.00 0.00 0.00 46 1007.9
20260831155013 20 360 29.0 0.0 0.00 0.00 0.00 46 1007.9
20260831154513 20 360 25.7 0.0 0.00 0.00 0.00 46 1007.9
20260831154012 20 360 24.1 0.0 0.00 0.00 0.00 47 1007.9
20260831153012 20 360 24.1 0.0 0.00 0.00 0.00 45 1007.9
20260831152514 20 360 24.1 0.0 0.00 0.00 0.00 46 1008.0
20260831152010 20 360 24.1 0.0 0.00 0.00 0.00 47 1008.0
20260831151510 20 360 24.1 0.0 0.00 0.00 0.00 47 1007.9
20260831151007 19 360 25.7 0.0 0.00 0.00 0.00 47 1007.9
20260831150507 19 360 24.1 0.0 0.00 0.00 0.00 48 1007.9
20260831150006 19 360 24.1 0.0 0.00 0.00 0.00 48 1007.8
20260831145507 19 360 24.1 0.0 0.00 0.00 0.00 49 1007.8
20260831145009 18 360 24.1 0.0 0.00 0.00 0.00 48 1007.8
20260831144506 18 360 24.1 0.0 0.00 0.00 0.00 49 1007.8
20260831144004 18 360 22.5 0.0 0.00 0.00 0.00 49 1007.7
20260831143006 18 360 22.5 0.0 0.00 0.00 0.00 49 1007.7
20260831142504 18 360 20.9 0.0 0.00 0.00 0.00 50 1007.7
20260831142004 17 360 20.9 0.0 0.00 0.00 0.00 50 1007.8
20260831141500 17 360 20.9 0.0 0.00 0.00 0.00 50 1007.8
20260831141100 17 360 20.9 0.0 0.00 0.00 0.00 50 1007.8
20260831141000 17 360 20.9 0.0 0.00 0.00 0.00 50 1007.8
20260831140602 17 360 20.9 0.0 0.00 0.00 0.00 51 1007.8
20260831140100 17 360 19.3 0.0 0.00 0.00 0.00 51 1007.8
20260831135559 17 360 17.7 0.0 0.00 0.00 0.00 52 1007.8
20260831135057 17 360 16.1 0.0 0.00 0.00 0.00 53 1007.8
20260831134557 16 360 16.1 0.0 0.00 0.00 0.00 53 1007.8
20260831134055 16 360 16.1 0.0 0.00 0.00 0.00 55 1007.8
20260831133654 15 360 16.1 0.0 0.00 0.00 0.00 56 1007.8
20260831133053 15 360 14.5 0.0 0.00 0.00 0.00 56 1007.8
20260831132556 15 360 14.5 0.0 0.00 0.00 0.00 57 1007.9
20260831132053 15 360 14.5 0.0 0.00 0.00 0.00 57 1007.9
20260831131555 15 360 14.5 0.0 0.00 0.00 0.00 57 1007.9
20260831131051 15 360 12.9 0.0 0.00 0.00 0.00 58 1007.9
20260831130550 15 360 14.5 0.0 0.00 0.00 0.00 58 1008.0
20260831130052 15 360 14.5 0.0 0.00 0.00 0.00 58 1007.9
20260831125549 15 360 14.5 0.0 0.00 0.00 0.00 58 1007.9
20260831125049 15 360 16.1 0.0 0.00 0.00 0.00 59 1007.9
20260831124548 15 360 14.5 0.0 0.00 0.00 0.00 59 1007.9
20260831124048 14 360 14.5 0.0 0.00 0.00 0.00 59 1007.8
20260831123646 14 360 16.1 0.0 0.00 0.00 0.00 59 1007.7
20260831123046 14 360 16.1 0.0 0.00 0.00 0.00 59 1007.6
20260831122545 14 360 16.1 0.0 0.00 0.00 0.00 59 1007.6
20260831122048 14 360 14.5 0.0 0.00 0.00 0.00 59 1007.5
20260831121547 14 360 14.5 0.0 0.00 0.00 0.00 60 1007.5
20260831121044 13 360 12.9 0.0 0.00 0.00 0.00 60 1007.4
20260831120545 13 360 11.3 0.0 0.00 0.00 0.00 60 1007.4
20260831120055 14 360 12.9 0.0 0.00 0.00 0.00 59 1007.4
20260831115545 14 360 14.5 0.0 0.00 0.00 0.00 59 1007.6
20260831115044 14 360 14.5 0.0 0.00 0.00 0.00 59 1007.5
20260831114546 14 360 12.9 0.0 0.00 0.00 0.00 60 1007.5
20260831114043 13 360 12.9 0.0 0.00 0.00 0.00 60 1007.3
20260831113645 13 360 11.3 0.0 0.00 0.00 0.00 61 1007.3
20260831113050 13 360 12.9 0.0 0.00 0.00 0.00 60 1007.2
20260831112543 14 360 14.5 0.0 0.00 0.00 0.00 61 1007.3
20260831112043 14 360 16.1 0.0 0.00 0.00 0.00 61 1007.2
20260831111542 14 360 16.1 0.0 0.00 0.00 0.00 62 1007.2
20260831111041 13 360 14.5 0.0 0.00 0.00 0.00 64 1007.2
20260831110540 13 360 11.3 0.0 0.00 0.00 0.00 68 1007.3
20260831110037 12 360 9.7 0.0 0.00 0.00 0.00 71 1007.3
20260831105537 12 360 11.3 0.0 0.00 0.00 0.00 73 1007.2
20260831105036 12 360 9.7 0.0 0.00 0.00 0.00 74 1007.2
20260831104539 12 360 9.7 0.0 0.00 0.00 0.00 75 1007.3
20260831104035 12 360 11.3 0.0 0.00 0.00 0.00 76 1007.3
20260831103634 11 360 9.7 0.0 0.00 0.00 0.00 78 1007.3
20260831103033 11 360 9.7 0.0 0.00 0.00 0.00 78 1007.3
20260831102533 11 360 6.4 0.0 0.00 0.00 0.00 78 1007.4
20260831102032 11 360 4.8 0.0 0.00 0.00 0.00 79 1007.2
20260831101532 11 360 6.4 0.0 0.00 0.00 0.00 79 1007.3
20260831101031 11 360 6.4 0.0 0.00 0.00 0.00 80 1007.5
20260831100530 11 360 6.4 0.0 0.00 0.00 0.00 81 1007.5
20260831100035 11 360 4.8 0.0 0.00 0.00 0.00 81 1007.5
20260831095529 11 360 4.8 0.0 0.00 0.00 0.00 80 1007.6
20260831095029 11 360 6.4 0.0 0.00 0.00 0.00 80 1007.6
20260831094529 11 360 6.4 0.0 0.00 0.00 0.00 81 1007.6
20260831094130 10 360 4.8 0.0 0.00 0.00 0.00 82 1007.7
20260831093630 10 360 3.2 0.0 0.00 0.00 0.00 82 1007.8
20260831093031 10 360 1.6 0.0 0.00 0.00 0.00 82 1007.8
20260831092534 10 360 1.6 0.0 0.00 0.00 0.00 81 1007.9
20260831092028 10 360 1.6 0.0 0.00 0.00 0.00 81 1007.9
20260831091533 10 360 0.0 0.0 0.00 0.00 0.00 81 1007.9
20260831091027 10 360 0.0 0.0 0.00 0.00 0.00 80 1007.7
20260831090529 10 360 0.0 0.0 0.00 0.00 0.00 80 1007.8
20260831090027 11 360 1.6 0.0 0.00 0.00 0.00 80 1007.8
20260831085526 11 360 3.2 0.0 0.00 0.00 0.00 81 1007.8
20260831085025 11 360 1.6 0.0 0.00 0.00 0.00 81 1007.8
20260831084528 11 360 0.0 0.0 0.00 0.00 0.00 81 1007.7
20260831084025 10 360 1.6 0.0 0.00 0.00 0.00 81 1007.7
20260831083625 10 360 3.2 0.0 0.00 0.00 0.00 81 1007.7
20260831083027 10 360 3.2 0.0 0.00 0.00 0.00 80 1007.7
20260831082524 11 360 1.6 0.0 0.00 0.00 0.00 81 1007.6
20260831082024 11 360 1.6 0.0 0.00 0.00 0.00 82 1007.7
20260831081525 11 360 1.6 0.0 0.00 0.00 0.00 82 1007.7
20260831081024 11 360 1.6 0.0 0.00 0.00 0.00 81 1007.7
20260831080522 11 360 0.0 0.0 0.00 0.00 0.00 81 1007.7
20260831080024 11 360 0.0 0.0 0.00 0.00 0.00 82 1007.8
20260831075521 11 360 0.0 0.0 0.00 0.00 0.00 82 1007.6
20260831075020 11 360 0.0 0.0 0.00 0.00 0.00 81 1007.6
20260831074524 11 360 1.6 0.0 0.00 0.00 0.00 81 1007.6
20260831074019 11 360 3.2 0.0 0.00 0.00 0.00 81 1007.4
20260831073617 11 360 3.2 0.0 0.00 0.00 0.00 81 1007.5
20260831073016 11 360 4.8 0.0 0.00 0.00 0.13 81 1007.4
20260831072516 11 360 4.8 0.0 0.00 0.00 0.13 82 1007.5
20260831072015 11 360 4.8 0.0 0.00 0.00 0.13 83 1007.4
20260831071515 11 360 6.4 0.0 0.00 0.00 0.13 83 1007.4
20260831071015 11 360 6.4 0.0 0.00 0.00 0.13 83 1007.5
20260831070514 11 360 4.8 0.0 0.00 0.00 0.13 81 1007.5
20260831070014 11 360 3.2 0.0 0.00 0.00 0.13 81 1007.3
20260831065514 12 360 1.6 0.0 0.00 0.00 0.13 81 1007.3
20260831065014 12 360 1.6 0.0 0.00 0.00 0.13 82 1007.4
20260831064513 12 360 3.2 0.0 0.00 0.00 0.13 82 1007.3
20260831064012 12 360 4.8 0.0 0.00 0.00 0.13 83 1007.3
20260831063615 11 360 4.8 0.0 0.00 0.00 0.13 83 1007.3
20260831063016 11 360 4.8 0.0 0.00 0.00 0.13 83 1007.4
20260831062513 11 360 6.4 0.0 0.00 0.00 0.13 82 1007.5
20260831062013 12 360 6.4 0.0 0.00 0.00 0.13 82 1007.5
20260831061513 12 360 3.2 0.0 0.00 0.00 0.13 82 1007.5
20260831061016 12 360 3.2 0.0 0.00 0.00 0.13 82 1007.6
20260831060511 12 360 3.2 0.0 0.00 0.00 0.13 82 1007.7
20260831060012 12 360 3.2 0.0 0.00 0.00 0.13 83 1007.6
20260831055513 12 360 1.6 0.0 0.00 0.00 0.13 83 1007.5
20260831055012 12 360 1.6 0.0 0.00 0.00 0.13 83 1007.7
20260831054511 12 360 1.6 0.0 0.00 0.00 0.13 83 1007.8
20260831054013 12 360 1.6 0.0 0.00 0.00 0.13 83 1007.8
20260831053611 12 360 0.0 0.0 0.00 0.00 0.13 83 1007.8
20260831053011 12 360 0.0 0.0 0.00 0.00 0.13 83 1007.8
20260831052510 12 360 0.0 0.0 0.00 0.00 0.13 83 1007.9
20260831052009 12 360 1.6 0.0 0.00 0.00 0.13 82 1007.9
20260831051518 12 360 3.2 0.0 0.00 0.00 0.13 82 1007.8
20260831051009 12 360 1.6 0.0 0.00 0.00 0.13 82 1007.7
20260831050509 12 360 3.2 0.0 0.00 0.00 0.13 82 1007.7
20260831050009 12 360 3.2 0.0 0.00 0.00 0.13 83 1007.7
20260831045512 12 360 3.2 0.0 0.00 0.00 0.13 83 1007.7
20260831045009 12 360 3.2 0.0 0.00 0.00 0.13 83 1007.7
20260831044509 12 360 3.2 0.0 0.00 0.00 0.13 83 1007.8
20260831044009 12 360 3.2 0.0 0.00 0.00 0.13 83 1007.7
20260831043609 11 360 1.6 0.0 0.00 0.00 0.13 82 1007.8
20260831043009 11 360 1.6 0.0 0.00 0.00 0.13 81 1007.8
20260831042506 12 360 1.6 0.0 0.00 0.00 0.13 80 1007.6
20260831042004 12 360 3.2 0.0 0.00 0.00 0.13 80 1007.6
20260831041505 12 360 3.2 0.0 0.00 0.00 0.13 81 1007.8
20260831041005 12 360 1.6 0.0 0.00 0.00 0.13 80 1007.9
20260831040503 12 360 3.2 0.0 0.00 0.00 0.13 80 1007.8
20260831040002 13 360 1.6 0.0 0.00 0.00 0.13 79 1007.9
20260831035501 13 360 3.2 0.0 0.00 0.00 0.13 79 1007.9
20260831035100 13 360 3.2 0.0 0.00 0.00 0.13 79 1008.0
20260831035000 13 360 3.2 0.0 0.00 0.00 0.13 79 1007.9
20260831034600 13 360 4.8 0.0 0.00 0.00 0.13 78 1008.0
20260831034102 13 360 4.8 0.0 0.00 0.00 0.13 79 1007.9
20260831033600 13 360 6.4 0.0 0.00 0.00 0.13 78 1007.9
20260831033110 13 360 6.4 0.0 0.00 0.00 0.13 78 1007.9
20260831032601 13 360 6.4 0.0 0.00 0.00 0.13 77 1008.0
20260831032059 13 360 8.0 0.0 0.00 0.00 0.13 77 1007.9
20260831031557 13 360 6.4 0.0 0.00 0.00 0.13 76 1007.8
20260831031055 13 360 4.8 0.0 0.00 0.00 0.13 76 1007.8
20260831030556 14 360 3.2 0.0 0.00 0.00 0.13 76 1007.7
20260831030056 14 360 3.2 0.0 0.00 0.00 0.13 75 1007.7
20260831025552 14 360 3.2 0.0 0.00 0.00 0.13 75 1007.6
20260831025052 14 360 3.2 0.0 0.00 0.00 0.13 74 1007.4
20260831024550 15 360 4.8 0.0 0.00 0.00 0.13 73 1007.4
20260831024048 15 360 6.4 0.0 0.00 0.00 0.13 73 1007.2
20260831023551 15 360 6.4 0.0 0.00 0.00 0.13 73 1007.2
20260831023049 15 360 6.4 0.0 0.00 0.00 0.13 73 1007.3
20260831022548 15 360 6.4 0.0 0.00 0.00 0.13 73 1007.1
20260831022047 15 360 6.4 0.0 0.00 0.00 0.13 71 1007.1
20260831021546 16 360 6.4 0.0 0.00 0.00 0.13 71 1007.1
20260831021046 16 360 8.0 0.0 0.00 0.00 0.13 70 1007.2
20260831020545 16 360 8.0 0.0 0.00 0.00 0.13 70 1007.0
20260831020104 16 360 9.7 0.0 0.00 0.00 0.13 69 1006.9
20260831015545 17 360 11.3 0.0 0.00 0.00 0.13 69 1006.9
20260831015045 17 360 11.3 0.0 0.00 0.00 0.13 69 1006.7
20260831014544 17 360 9.7 0.0 0.00 0.00 0.13 71 1006.7
20260831014044 17 360 8.0 0.0 0.00 0.00 0.13 71 1006.7
20260831013546 18 360 8.0 0.0 0.00 0.00 0.13 70 1006.8
20260831013044 18 360 8.0 0.0 0.00 0.00 0.13 70 1006.8
20260831012544 18 360 8.0 0.0 0.00 0.00 0.13 69 1006.8
20260831012043 18 360 8.0 0.0 0.00 0.00 0.13 68 1006.6
20260831011546 18 360 9.7 0.0 0.00 0.00 0.13 67 1006.7
20260831011043 18 360 11.3 0.0 0.00 0.00 0.13 67 1006.7
20260831010543 19 360 11.3 0.0 0.00 0.00 0.13 66 1006.7
20260831010044 19 360 11.3 0.0 0.00 0.00 0.13 64 1006.7
20260831005543 20 360 11.3 0.0 0.00 0.00 0.13 63 1006.7
20260831005043 20 360 11.3 0.0 0.00 0.00 0.13 63 1006.7
20260831004545 20 287 9.7 0.0 0.00 0.00 0.13 62 1006.6
20260831004043 20 360 8.0 0.0 0.00 0.00 0.13 62 1006.5
20260831003543 20 269 6.4 0.0 0.00 0.00 0.13 65 1006.3
20260831003042 19 360 6.4 0.0 0.00 0.00 0.13 65 1006.2
20260831002542 19 360 4.8 0.0 0.00 0.00 0.13 66 1006.4
20260831002042 18 360 4.8 0.0 0.00 0.00 0.13 67 1006.4
20260831001543 18 360 4.8 0.0 0.00 0.00 0.13 67 1006.4
20260831001045 18 360 6.4 0.0 0.00 0.00 0.13 67 1006.2
20260831000543 18 360 6.4 0.0 0.00 0.00 0.13 68 1006.0
20260831000046 18 360 8.0 0.0 0.00 0.00 0.13 69 1006.0
20260830235542 18 360 8.0 0.0 0.00 0.00 0.13 70 1006.2
20260830235043 18 360 6.4 0.0 0.00 0.00 0.13 70 1006.3
20260830234542 18 360 4.8 0.0 0.00 0.00 0.13 67 1005.5
20260830234043 19 360 6.4 0.0 0.00 0.00 0.13 65 1005.2
20260830233543 19 360 9.7 0.0 0.00 0.00 0.13 62 1006.7
20260830233045 19 360 11.3 0.0 0.00 0.00 0.13 62 1006.8
20260830232543 19 360 9.7 0.0 0.00 0.00 0.13 62 1007.0
20260830232041 19 360 9.7 0.0 0.00 0.00 0.13 63 1007.0
20260830231540 19 360 9.7 0.0 0.00 0.00 0.13 64 1007.0
20260830231039 19 360 9.7 0.0 0.00 0.00 0.13 64 1006.7
20260830230539 19 360 14.5 0.0 0.00 0.00 0.13 64 1006.4
20260830230038 19 360 17.7 0.0 0.00 0.00 0.13 64 1006.9
20260830225538 20 360 17.7 0.0 0.00 0.00 0.13 65 1007.0
20260830225038 20 360 19.3 0.0 0.00 0.00 0.13 64 1007.1
20260830224536 20 360 20.9 0.0 0.00 0.00 0.13 63 1006.7
20260830224037 20 360 25.7 0.0 0.00 0.00 0.13 63 1006.6
20260830223537 20 360 27.4 0.0 0.00 0.00 0.13 64 1006.6
20260830223036 20 360 25.7 0.0 0.00 0.00 0.13 63 1006.5